| time (UTC) | temp F | wind direction | speed MPH | gust MPH | rain 1hr in | rain 24hr in | rain mn in | humidity % | barometer mb |
| 20260504081600 | 42 | 267 | 3.0 | 9.0 | 0.00 | 0.00 | 0.00 | 69 | 950.5 |
| 20260504044546 | 44 | 265 | 3.0 | 6.0 | 0.00 | 0.00 | 0.00 | 65 | 950.6 |
| 20260504043047 | 45 | 259 | 3.0 | 6.0 | 0.00 | 0.00 | 0.00 | 63 | 950.8 |
| 20260504041543 | 46 | 257 | 3.0 | 5.0 | 0.00 | 0.00 | 0.00 | 62 | 950.7 |
| 20260504040043 | 45 | 257 | 2.0 | 4.0 | 0.00 | 0.00 | 0.00 | 65 | 950.6 |
| 20260504034544 | 46 | 336 | 1.0 | 3.0 | 0.00 | 0.00 | 0.00 | 64 | 950.7 |
| 20260504033043 | 47 | 340 | 0.0 | 0.0 | 0.00 | 0.00 | 0.00 | 60 | 950.6 |
| 20260504031546 | 47 | 340 | 0.0 | 4.0 | 0.00 | 0.00 | 0.00 | 61 | 950.8 |
| 20260504030044 | 47 | 344 | 2.0 | 6.0 | 0.00 | 0.00 | 0.00 | 60 | 950.9 |
| 20260504024543 | 47 | 321 | 2.0 | 6.0 | 0.00 | 0.00 | 0.00 | 60 | 951.0 |
| 20260504023042 | 47 | 351 | 3.0 | 9.0 | 0.00 | 0.00 | 0.00 | 60 | 951.2 |
| 20260504021542 | 47 | 330 | 3.0 | 8.0 | 0.00 | 0.00 | 0.00 | 60 | 951.0 |
| 20260504020041 | 47 | 355 | 3.0 | 9.0 | 0.00 | 0.00 | 0.00 | 60 | 951.0 |
| 20260504014553 | 47 | 91 | 4.0 | 10.0 | 0.00 | 0.00 | 0.00 | 60 | 951.0 |
| 20260504013041 | 47 | 9 | 3.0 | 8.0 | 0.00 | 0.00 | 0.00 | 58 | 950.9 |
| 20260504011539 | 48 | 12 | 5.0 | 12.0 | 0.00 | 0.00 | 0.00 | 56 | 951.0 |
| 20260504010037 | 48 | 5 | 5.0 | 12.0 | 0.00 | 0.00 | 0.00 | 55 | 950.8 |
| 20260504004537 | 48 | 13 | 6.0 | 15.0 | 0.00 | 0.00 | 0.00 | 55 | 950.7 |
| 20260504003041 | 48 | 319 | 2.0 | 5.0 | 0.00 | 0.00 | 0.00 | 56 | 950.4 |
| 20260504001547 | 47 | 299 | 0.0 | 0.0 | 0.00 | 0.00 | 0.00 | 59 | 950.1 |
| 20260504000043 | 47 | 299 | 0.0 | 2.0 | 0.00 | 0.00 | 0.00 | 56 | 949.9 |
| 20260503234538 | 48 | 298 | 1.0 | 3.0 | 0.00 | 0.00 | 0.00 | 55 | 949.9 |
| 20260503233037 | 49 | 283 | 1.0 | 5.0 | 0.00 | 0.00 | 0.00 | 57 | 949.8 |
| 20260503231542 | 49 | 294 | 1.0 | 4.0 | 0.00 | 0.00 | 0.00 | 56 | 949.8 |
| 20260503230037 | 49 | 331 | 2.0 | 9.0 | 0.00 | 0.00 | 0.00 | 54 | 949.7 |
| 20260503224539 | 50 | 16 | 3.0 | 14.0 | 0.00 | 0.00 | 0.00 | 52 | 949.9 |
| 20260503223034 | 50 | 342 | 3.0 | 11.0 | 0.00 | 0.00 | 0.00 | 53 | 949.8 |
| 20260503221539 | 50 | 35 | 5.0 | 15.0 | 0.00 | 0.00 | 0.00 | 51 | 950.1 |
| 20260503220033 | 51 | 321 | 8.0 | 16.0 | 0.00 | 0.00 | 0.00 | 51 | 950.1 |
| 20260503214534 | 49 | 11 | 7.0 | 19.0 | 0.00 | 0.00 | 0.00 | 53 | 950.1 |
| 20260503213035 | 49 | 355 | 8.0 | 19.0 | 0.00 | 0.00 | 0.00 | 52 | 950.1 |
| 20260503211534 | 49 | 333 | 11.0 | 20.0 | 0.00 | 0.00 | 0.00 | 53 | 950.1 |
| 20260503210134 | 49 | 5 | 10.0 | 27.0 | 0.00 | 0.00 | 0.00 | 51 | 950.0 |
| 20260503204537 | 49 | 355 | 4.0 | 17.0 | 0.00 | 0.00 | 0.00 | 51 | 949.6 |
| 20260503203036 | 50 | 31 | 5.0 | 16.0 | 0.00 | 0.00 | 0.00 | 47 | 949.7 |
| 20260503201536 | 49 | 351 | 10.0 | 23.0 | 0.00 | 0.00 | 0.00 | 46 | 949.9 |
| 20260503200042 | 50 | 16 | 9.0 | 16.0 | 0.00 | 0.00 | 0.00 | 45 | 949.9 |
| 20260503194531 | 50 | 19 | 6.0 | 20.0 | 0.00 | 0.00 | 0.00 | 46 | 950.1 |
| 20260503193038 | 50 | 5 | 10.0 | 21.0 | 0.00 | 0.00 | 0.00 | 44 | 950.3 |
| 20260503191538 | 50 | 5 | 5.0 | 14.0 | 0.00 | 0.00 | 0.00 | 45 | 950.4 |
| 20260503190044 | 50 | 15 | 11.0 | 18.0 | 0.00 | 0.00 | 0.00 | 43 | 950.4 |
| 20260503184536 | 51 | 328 | 9.0 | 22.0 | 0.00 | 0.00 | 0.00 | 41 | 950.6 |
| 20260503183036 | 50 | 348 | 9.0 | 20.0 | 0.00 | 0.00 | 0.00 | 43 | 950.8 |
| 20260503181534 | 50 | 355 | 12.0 | 20.0 | 0.00 | 0.00 | 0.00 | 43 | 950.9 |
| 20260503180032 | 48 | 355 | 11.0 | 21.0 | 0.00 | 0.00 | 0.00 | 47 | 951.1 |
| 20260503174530 | 48 | 306 | 7.0 | 18.0 | 0.00 | 0.00 | 0.00 | 46 | 951.1 |
| 20260503173031 | 46 | 13 | 9.0 | 16.0 | 0.00 | 0.00 | 0.00 | 44 | 951.2 |
| 20260503171524 | 48 | 355 | 8.0 | 18.0 | 0.00 | 0.00 | 0.00 | 44 | 951.5 |